Satellite: INMARSAT 3-F1
Catalog number: 23839
Epoch time:      103032.95179197
Element set:     860 
Inclination:        0.0630 deg
RA of node:       340.0540 deg
Eccentricity:    0.0004002
Arg of perigee:   337.7074 deg
Mean anomaly:     220.4767 deg
Mean motion:    1.00270465 rev/day
Decay rate:    6.9999E-008 rev/day^2
Epoch rev:            2504
Checksum:              285

Satellite: ASTRA 1F
Catalog number: 23842
Epoch time:      103023.00000000
Element set:     557 
Inclination:        0.0122 deg
RA of node:       319.8851 deg
Eccentricity:    0.0002995
Arg of perigee:    65.1991 deg
Mean anomaly:     116.0362 deg
Mean motion:    1.00273184 rev/day
Decay rate:    1.2399E-006 rev/day^2
Epoch rev:            2485
Checksum:              244

Satellite: JAS 2
Catalog number: 24278
Epoch time:      103033.93648676
Element set:     566 
Inclination:       98.5337 deg
RA of node:       187.2799 deg
Eccentricity:    0.0349892
Arg of perigee:   257.0674 deg
Mean anomaly:      99.1172 deg
Mean motion:   13.52870458 rev/day
Decay rate:    5.0000E-008 rev/day^2
Epoch rev:           31919
Checksum:              359

Satellite: UNAMSAT
Catalog number: 24305
Epoch time:      103034.18948052
Element set:     659 
Inclination:       82.9344 deg
RA of node:       274.1559 deg
Eccentricity:    0.0028506
Arg of perigee:   247.3090 deg
Mean anomaly:     112.5047 deg
Mean motion:   13.73450457 rev/day
Decay rate:    2.0499E-006 rev/day^2
Epoch rev:           32137
Checksum:              303

Satellite: INMARSAT 3-F2
Catalog number: 24307
Epoch time:      103032.96911458
Element set:     79 
Inclination:        0.0664 deg
RA of node:        16.8716 deg
Eccentricity:    0.0004612
Arg of perigee:   287.1197 deg
Mean anomaly:     161.0756 deg
Mean motion:    1.00270670 rev/day
Decay rate:   -1.3400E-006 rev/day^2
Epoch rev:            2345
Checksum:              269

Satellite: HOT BIRD 2
Catalog number: 24665
Epoch time:      103022.98977813
Element set:     340 
Inclination:        0.0347 deg
RA of node:       162.8644 deg
Eccentricity:    0.0004202
Arg of perigee:   151.1719 deg
Mean anomaly:     177.1880 deg
Mean motion:    1.00271548 rev/day
Decay rate:    9.9999E-009 rev/day^2
Epoch rev:            2299
Checksum:              314

Satellite: INMARSAT 3-F3
Catalog number: 24674
Epoch time:      103034.41574416
Element set:     982 
Inclination:        0.0341 deg
RA of node:       322.5757 deg
Eccentricity:    0.0004324
Arg of perigee:   340.7153 deg
Mean anomaly:     157.6477 deg
Mean motion:    1.00274208 rev/day
Decay rate:    3.1999E-007 rev/day^2
Epoch rev:            2243
Checksum:              285

Satellite: GOES 10
Catalog number: 24786
Epoch time:      103033.37646529
Element set:     527 
Inclination:        0.0981 deg
RA of node:       107.3395 deg
Eccentricity:    0.0003109
Arg of perigee:   217.8485 deg
Mean anomaly:     168.0804 deg
Mean motion:    1.00286714 rev/day
Decay rate:    7.4000E-007 rev/day^2
Epoch rev:            2117
Checksum:              281

Satellite: INMARSAT 3-F4
Catalog number: 24819
Epoch time:      103032.42158473
Element set:     875 
Inclination:        0.0283 deg
RA of node:       297.5727 deg
Eccentricity:    0.0003877
Arg of perigee:    18.9270 deg
Mean anomaly:     272.4104 deg
Mean motion:    1.00267337 rev/day
Decay rate:   -2.9600E-006 rev/day^2
Epoch rev:            2083
Checksum:              293

Satellite: FENGYUN 2A
Catalog number: 24834
Epoch time:      103032.62147551
Element set:     952 
Inclination:        2.5306 deg
RA of node:        88.6477 deg
Eccentricity:    0.0003238
Arg of perigee:   268.9222 deg
Mean anomaly:      83.0864 deg
Mean motion:    1.00260410 rev/day
Decay rate:   -1.9900E-006 rev/day^2
Epoch rev:            2066
Checksum:              274

Satellite: HOT BIRD 3
Catalog number: 24931
Epoch time:      103023.22766377
Element set:     421 
Inclination:        0.0604 deg
RA of node:       227.5595 deg
Eccentricity:    0.0010036
Arg of perigee:    81.3762 deg
Mean anomaly:     268.1866 deg
Mean motion:    1.00274291 rev/day
Decay rate:    9.9999E-009 rev/day^2
Epoch rev:            1980
Checksum:              302

Satellite: METEOSAT 7
Catalog number: 24932
Epoch time:      103029.08980325
Element set:     240 
Inclination:        0.1718 deg
RA of node:        58.2503 deg
Eccentricity:    0.0000821
Arg of perigee:   266.4382 deg
Mean anomaly:     195.6196 deg
Mean motion:    1.00275192 rev/day
Decay rate:   -9.0000E-008 rev/day^2
Epoch rev:            1981
Checksum:              391

Satellite: ASTRA 1G
Catalog number: 25071
Epoch time:      103023.00000000
Element set:     388 
Inclination:        0.0122 deg
RA of node:       319.8851 deg
Eccentricity:    0.0002995
Arg of perigee:    65.1991 deg
Mean anomaly:     116.0322 deg
Mean motion:    1.00273184 rev/day
Decay rate:    1.2399E-006 rev/day^2
Epoch rev:            1887
Checksum:              243

Satellite: INMARSAT 3-F5
Catalog number: 25153
Epoch time:      103032.96781544
Element set:     838 
Inclination:        0.4542 deg
RA of node:       357.6448 deg
Eccentricity:    0.0004393
Arg of perigee:   320.8544 deg
Mean anomaly:     186.6275 deg
Mean motion:    1.00274033 rev/day
Decay rate:    1.3100E-006 rev/day^2
Epoch rev:            1833
Checksum:              390

Satellite: HOT BIRD 4
Catalog number: 25237
Epoch time:      103013.80550721
Element set:     325 
Inclination:        0.0242 deg
RA of node:       116.4838 deg
Eccentricity:    0.0007929
Arg of perigee:   193.6371 deg
Mean anomaly:     105.7449 deg
Mean motion:    1.00276095 rev/day
Decay rate:    1.0700E-006 rev/day^2
Epoch rev:            1818
Checksum:              265

Satellite: NOAA 15
Catalog number: 25338
Epoch time:      103033.93191209
Element set:     993 
Inclination:       98.5503 deg
RA of node:        56.5056 deg
Eccentricity:    0.0010856
Arg of perigee:     7.6198 deg
Mean anomaly:     352.5144 deg
Mean motion:   14.24236953 rev/day
Decay rate:    1.6799E-006 rev/day^2
Epoch rev:           24557
Checksum:              331

Satellite: RESURS O1-N4
Catalog number: 25394
Epoch time:      103033.96554825
Element set:     468 
Inclination:       98.6356 deg
RA of node:       112.1823 deg
Eccentricity:    0.0002043
Arg of perigee:   130.6326 deg
Mean anomaly:     229.5030 deg
Mean motion:   14.23871365 rev/day
Decay rate:    1.0400E-006 rev/day^2
Epoch rev:           23731
Checksum:              282

Satellite: TMSAT
Catalog number: 25396
Epoch time:      103033.93173554
Element set:     914 
Inclination:       98.6294 deg
RA of node:       111.3412 deg
Eccentricity:    0.0003005
Arg of perigee:   158.4695 deg
Mean anomaly:     201.6611 deg
Mean motion:   14.23506104 rev/day
Decay rate:   -4.3000E-007 rev/day^2
Epoch rev:           23730
Checksum:              264

Satellite: TECHSAT 1B
Catalog number: 25397
Epoch time:      103033.94748080
Element set:     147 
Inclination:       98.6251 deg
RA of node:       110.2598 deg
Eccentricity:    0.0001475
Arg of perigee:   152.5709 deg
Mean anomaly:     207.5548 deg
Mean motion:   14.22955884 rev/day
Decay rate:    6.2999E-007 rev/day^2
Epoch rev:           23727
Checksum:              342

Satellite: ASTRA 2A
Catalog number: 25462
Epoch time:      103023.69277567
Element set:     529 
Inclination:        0.0332 deg
RA of node:        23.2945 deg
Eccentricity:    0.0014243
Arg of perigee:   166.1651 deg
Mean anomaly:     210.9165 deg
Mean motion:    1.00270553 rev/day
Decay rate:    9.9999E-009 rev/day^2
Epoch rev:            1618
Checksum:              292

Satellite: EUTELSAT W2
Catalog number: 25491
Epoch time:      103029.00266876
Element set:     571 
Inclination:        0.0278 deg
RA of node:       124.8124 deg
Eccentricity:    0.0003697
Arg of perigee:   176.6640 deg
Mean anomaly:     203.3209 deg
Mean motion:    1.00274433 rev/day
Decay rate:    9.8999E-007 rev/day^2
Epoch rev:            1584
Checksum:              300

Satellite: HOT BIRD 5
Catalog number: 25495
Epoch time:      103031.82481701
Element set:     496 
Inclination:        0.0130 deg
RA of node:       168.2589 deg
Eccentricity:    0.0004110
Arg of perigee:   139.7195 deg
Mean anomaly:     152.6358 deg
Mean motion:    1.00273064 rev/day
Decay rate:    1.4500E-006 rev/day^2
Epoch rev:            1584
Checksum:              268

Satellite: SEDSAT 1
Catalog number: 25509
Epoch time:      103033.91597178
Element set:     770 
Inclination:       31.4280 deg
RA of node:       241.5699 deg
Eccentricity:    0.0357587
Arg of perigee:   166.2349 deg
Mean anomaly:     194.8322 deg
Mean motion:   14.27408656 rev/day
Decay rate:    8.2899E-006 rev/day^2
Epoch rev:           22307
Checksum:              347

Satellite: PAN SAT
Catalog number: 25520
Epoch time:      103033.93490101
Element set:     641 
Inclination:       28.4595 deg
RA of node:       327.9784 deg
Eccentricity:    0.0005728
Arg of perigee:   183.2277 deg
Mean anomaly:     176.8353 deg
Mean motion:   15.13795646 rev/day
Decay rate:    2.5929E-005 rev/day^2
Epoch rev:           23521
Checksum:              427

Satellite: ISS (ZARYA)
Catalog number: 25544
Epoch time:      103034.47418981
Element set:     652 
Inclination:       51.6375 deg
RA of node:       331.8520 deg
Eccentricity:    0.0005689
Arg of perigee:   107.8512 deg
Mean anomaly:      52.4725 deg
Mean motion:   15.60216281 rev/day
Decay rate:    3.8516E-004 rev/day^2
Epoch rev:           24014
Checksum:              290

